[[{"header":{"parameterUnit":"m.s-1","parameterCategory":1,"la1":30.2991,"la2":30.254,"lo1":-89.0895,"lo2":-89.0444,"dy":0.0017,"dx":0.0017,"nx":28,"ny":28,"refTime":"2024-11-24T09:00:00:Z","depth":0,"parameterNumber":2,"parameterNumberName":"U-component_of_WINDS"},"data":[0,0,0,0,0,0,0,0,0,0,0,0,0,0,0,0,0,0,0,0,0,0,0,0,0,0,0,0,0,0,0,0,0,0,0,0,0,0,0,0,0,0,0,0,0,0,0,0,0,0,0,0,0,0,0,0,0,0,-2.0346,-2.0346,0,-2.0431,-2.0432,-2.0433,-2.046,-2.046,-2.046,-2.0459,-2.0548,-2.0551,-2.0553,0,0,0,0,0,0,0,0,0,0,0,0,0,-2.0208,-2.021,-2.0345,-2.0347,-2.0348,-2.0431,-2.0432,-2.0433,-2.0461,-2.046,-2.046,-2.0459,-2.0547,-2.055,-2.0554,0,0,0,0,0,0,0,0,0,0,0,0,0,-2.0278,-2.0211,-2.0345,-2.0371,-2.0374,-2.043,-2.0432,-2.0433,-2.0461,-2.046,-2.0459,-2.0459,-2.0546,-2.055,-2.0554,-2.0591,0,0,-2.0567,-2.0568,0,0,0,0,0,0,0,0,-2.0274,-2.0283,-2.0366,-2.037,-2.0373,-2.0434,-2.0416,-2.0486,-2.0461,-2.0428,-2.0459,-2.0459,-2.0511,-2.0518,-2.0535,-2.0595,-2.0599,-2.0567,-2.0569,-2.0571,-2.0572,0,0,0,0,0,0,0,-2.0269,-2.028,-2.0379,-2.0368,-2.0372,-2.0379,-2.0389,-2.0429,-2.0472,-2.0431,-2.0433,-2.0443,-2.0513,-2.0531,-2.0537,-2.06,-2.0567,-2.057,-2.0573,-2.0575,-2.0695,-2.0696,0,0,0,0,0,0,-2.026,-2.0275,-2.0377,-2.0382,-2.0321,-2.0382,-2.0393,-2.0415,-2.0471,-2.0479,-2.0443,-2.0444,-2.0524,-2.0533,-2.0541,-2.0587,-2.0571,-2.0575,-2.0577,-2.0694,-2.0695,-2.0696,0,0,0,0,0,0,-2.0257,-2.0268,-2.0373,-2.0329,-2.0343,-2.0385,-2.0411,-2.0417,-2.0436,-2.048,-2.0488,-2.0454,-2.0524,-2.0535,-2.0578,-2.059,-2.0577,-2.058,-2.0693,-2.0695,-2.0696,-2.068,0,0,0,0,0,0,-2.0253,-2.0267,-2.0281,-2.0329,-2.0345,-2.0408,-2.0411,-2.0419,-2.0443,-2.0444,-2.0493,-2.05,-2.0525,-2.0572,-2.0582,-2.0596,-2.0584,-2.0692,-2.0694,-2.0695,-2.068,-2.0681,-2.0681,0,0,0,0,0,-2.0248,-2.0273,-2.0281,-2.0294,-2.0363,-2.0409,-2.0418,-2.0445,-2.0443,-2.0458,-2.0487,-2.0499,-2.0588,-2.0576,-2.0588,-2.0603,-2.0692,-2.0693,-2.0695,-2.0679,-2.068,-2.0681,0,0,0,0,0,0,-2.0226,-2.028,-2.029,-2.0332,-2.0366,-2.0414,-2.0433,-2.0446,-2.0481,-2.0481,-2.0513,-2.0524,-2.0565,-2.0589,-2.0575,-2.0642,-2.064,-2.0645,-2.0624,-2.0626,-2.0627,-2.062,-2.0587,0,0,0,0,0,-2.0226,-2.0258,-2.0304,-2.0337,-2.0353,-2.039,-2.0411,-2.0429,-2.0465,-2.048,-2.0512,-2.0547,-2.0583,-2.0606,-2.0642,-2.0684,-2.0695,-2.07,-2.0701,-2.0702,-2.0705,-2.0729,-2.0732,-2.0702,-2.0702,-2.0702,0,0,-2.0226,-2.026,-2.0278,-2.0333,-2.0361,-2.0394,-2.0402,-2.0436,-2.0461,-2.0485,-2.0528,-2.0553,-2.0594,-2.0637,-2.0658,-2.0658,-2.0716,-2.0704,-2.0704,-2.0707,-2.0731,-2.0734,-2.0736,-2.0703,-2.0702,-2.0702,0,0,-2.0243,-2.0272,-2.0303,-2.0331,-2.0374,-2.0398,-2.0405,-2.0452,-2.0469,-2.0512,-2.0531,-2.0562,-2.0623,-2.0652,-2.0675,-2.0705,-2.0717,-2.0716,-2.0719,-2.0743,-2.0745,-2.0747,-2.0758,-2.0761,-2.0718,-2.0718,-2.0718,0,-2.0239,-2.0288,-2.0317,-2.035,-2.0374,-2.0398,-2.0429,-2.0455,-2.0507,-2.0524,-2.0524,-2.0601,-2.0631,-2.0681,-2.0688,-2.0706,-2.0716,-2.0709,-2.0742,-2.0745,-2.0747,-2.0758,-2.0761,-2.0718,-2.0718,-2.0718,-2.0718,0,-2.028,-2.0314,-2.0334,-2.0383,-2.041,-2.0442,-2.0476,-2.0499,-2.0516,-2.054,-2.0584,-2.0621,-2.0665,-2.0678,-2.0695,-2.0731,-2.073,-2.0736,-2.0735,-2.0749,-2.0759,-2.0763,-2.0717,-2.0717,-2.0717,-2.0718,0,0,-2.0285,-2.035,-2.0356,-2.0379,-2.0429,-2.0456,-2.049,-2.0532,-2.0551,-2.0587,-2.0616,-2.0668,-2.0674,-2.07,-2.072,-2.0741,-2.0762,-2.0744,-2.0746,-2.0746,-2.0804,-2.0799,-2.0803,-2.0771,-2.0772,-2.0773,-2.0801,0,-2.0308,-2.0368,-2.0395,-2.0443,-2.0476,-2.0499,-2.0529,-2.0563,-2.0587,-2.0619,-2.0646,-2.0682,-2.0687,-2.0703,-2.0725,-2.0754,-2.0774,-2.0753,-2.0799,-2.08,-2.0786,-2.0808,-2.0802,-2.0827,-2.0805,-2.0805,-2.0806,0,-2.0342,-2.0377,-2.0428,-2.0474,-2.0489,-2.0515,-2.0556,-2.0586,-2.0625,-2.0642,-2.0671,-2.069,-2.0728,-2.0725,-2.0777,-2.0762,-2.0783,-2.0801,-2.0803,-2.0807,-2.0803,-2.0812,-2.0835,-2.0838,-2.0813,-2.0812,-2.0812,0,-2.0339,-2.04,-2.0438,-2.0457,-2.0512,-2.0529,-2.0553,-2.0592,-2.0616,-2.0652,-2.0668,-2.0709,-2.0731,-2.0763,-2.0793,-2.0788,-2.0842,-2.0842,-2.0857,-2.0856,-2.0866,-2.0865,-2.0892,-2.0881,-2.0881,-2.0881,-2.0881,0,-2.0361,-2.0392,-2.0438,-2.0461,-2.0496,-2.0528,-2.0562,-2.0588,-2.0622,-2.0652,-2.0675,-2.0703,-2.0742,-2.0774,-2.0798,-2.0838,-2.0848,-2.0863,-2.0868,-2.086,-2.0858,-2.0873,-2.0872,-2.0882,-2.0882,-2.0881,-2.0881,0,-2.0363,-2.0396,-2.0439,-2.0487,-2.05,-2.0524,-2.0565,-2.059,-2.0616,-2.0653,-2.0664,-2.0705,-2.0744,-2.0778,-2.0831,-2.0847,-2.0888,-2.0895,-2.0874,-2.0877,-2.0889,-2.0887,-2.0926,-2.0933,-2.0918,-2.0918,-2.0918,0,-2.0375,-2.0399,-2.0449,-2.0471,-2.0494,-2.0528,-2.0552,-2.0585,-2.061,-2.0657,-2.0675,-2.0717,-2.0751,-2.0814,-2.0849,-2.089,-2.0898,-2.0909,-2.0904,-2.0895,-2.0897,-2.0895,-2.0898,-2.0908,-2.0908,-2.0908,-2.0908,0,-2.0392,-2.0406,-2.044,-2.048,-2.0508,-2.0541,-2.0575,-2.0591,-2.0631,-2.0657,-2.0698,-2.0725,-2.0778,-2.0819,-2.0864,-2.0889,-2.0906,-2.091,-2.0915,-2.0906,-2.0893,-2.09,-2.0874,-2.0909,-2.0909,-2.0909,-2.0908,-2.0908,-2.0398,-2.0421,-2.046,-2.0497,-2.0526,-2.0557,-2.0582,-2.0611,-2.0645,-2.0691,-2.0709,-2.075,-2.079,-2.0851,-2.0877,-2.0911,-2.0913,-2.0921,-2.0923,-2.0924,-2.0923,-2.0888,-2.0919,-2.0919,-2.0919,-2.0919,-2.092,0,-2.0416,-2.0442,-2.0476,-2.0522,-2.0552,-2.0564,-2.0603,-2.0627,-2.0662,-2.0698,-2.0732,-2.0779,-2.0819,-2.0857,-2.09,-2.0919,-2.0928,-2.0929,-2.0928,-2.0933,-2.0918,-2.0909,-2.0921,-2.0921,-2.0921,-2.0921,-2.0921,-2.0921,-2.0428,-2.0466,-2.0486,-2.0539,-2.0566,-2.0606,-2.0626,-2.0656,-2.0684,-2.0735,-2.0768,-2.0793,-2.083,-2.0876,-2.0913,-2.0924,-2.0938,-2.0937,-2.095,-2.0935,-2.0934,-2.0934,-2.0925,-2.094,-2.094,-2.0962,-2.0962,-2.0962]},{"header":{"parameterUnit":"m.s-1","parameterCategory":1,"la1":30.2991,"la2":30.254,"lo1":-89.0895,"lo2":-89.0444,"dy":0.0017,"dx":0.0017,"nx":28,"ny":28,"refTime":"2024-11-24T09:00:00:Z","depth":0,"parameterNumber":3,"parameterNumberName":"V-component_of_WINDS"},"data":[0,0,0,0,0,0,0,0,0,0,0,0,0,0,0,0,0,0,0,0,0,0,0,0,0,0,0,0,0,0,0,0,0,0,0,0,0,0,0,0,0,0,0,0,0,0,0,0,0,0,0,0,0,0,0,0,0,0,2.2526,2.2526,0,2.254,2.254,2.254,2.2572,2.2573,2.2573,2.2574,2.2585,2.2584,2.2584,0,0,0,0,0,0,0,0,0,0,0,0,0,2.2524,2.2524,2.2526,2.2526,2.2526,2.254,2.254,2.254,2.2572,2.2573,2.2574,2.2574,2.2585,2.2584,2.2584,0,0,0,0,0,0,0,0,0,0,0,0,0,2.253,2.2524,2.2526,2.2544,2.2545,2.254,2.254,2.254,2.2572,2.2573,2.2574,2.2575,2.2585,2.2584,2.2584,2.2561,0,0,2.2582,2.2582,0,0,0,0,0,0,0,0,2.253,2.253,2.2541,2.2542,2.2544,2.2555,2.2543,2.2547,2.2571,2.2562,2.2574,2.2575,2.2574,2.2574,2.2575,2.2561,2.2562,2.2582,2.2582,2.2582,2.2582,0,0,0,0,0,0,0,2.2529,2.253,2.2531,2.2541,2.2543,2.255,2.2552,2.2544,2.2562,2.2563,2.2565,2.2566,2.2575,2.2575,2.2575,2.2562,2.2582,2.2582,2.2582,2.2581,2.2532,2.2531,0,0,0,0,0,0,2.2526,2.2529,2.2531,2.2532,2.2539,2.255,2.2552,2.2551,2.2562,2.2565,2.2565,2.2568,2.2575,2.2576,2.2576,2.2551,2.2582,2.2581,2.2581,2.2533,2.2532,2.2531,0,0,0,0,0,0,2.2526,2.2526,2.253,2.2531,2.2532,2.2549,2.2547,2.255,2.2551,2.2564,2.2567,2.2563,2.2576,2.2576,2.2565,2.2551,2.2581,2.2581,2.2535,2.2533,2.2532,2.25,0,0,0,0,0,0,2.2526,2.2526,2.2518,2.2531,2.2532,2.252,2.2546,2.255,2.255,2.2553,2.2562,2.2565,2.2577,2.2566,2.2565,2.2551,2.258,2.2536,2.2534,2.2532,2.2502,2.2497,2.2493,0,0,0,0,0,2.2526,2.2507,2.2517,2.2517,2.2522,2.2519,2.252,2.2535,2.2549,2.2541,2.255,2.2564,2.2553,2.2564,2.2563,2.255,2.2537,2.2534,2.2532,2.2504,2.2498,2.2493,0,0,0,0,0,0,2.2491,2.2509,2.2521,2.2505,2.2511,2.2524,2.2514,2.2528,2.2529,2.2531,2.255,2.2552,2.2538,2.2543,2.2555,2.2529,2.2547,2.2545,2.2526,2.2521,2.2516,2.2516,2.258,0,0,0,0,0,2.2482,2.2478,2.2494,2.2479,2.2482,2.2497,2.2497,2.2509,2.2514,2.2516,2.2524,2.2528,2.2526,2.2523,2.2522,2.2503,2.2506,2.2493,2.2489,2.2485,2.2482,2.2474,2.2469,2.2524,2.2524,2.2524,0,0,2.2462,2.2471,2.2468,2.2473,2.2478,2.2474,2.2499,2.2493,2.249,2.2515,2.2505,2.2511,2.2517,2.2502,2.2496,2.2506,2.2468,2.2482,2.2479,2.2479,2.2471,2.2466,2.2461,2.2522,2.2522,2.2523,0,0,2.2424,2.2431,2.242,2.2425,2.2434,2.2445,2.2442,2.2455,2.246,2.2451,2.247,2.2466,2.2461,2.2465,2.2466,2.2432,2.2446,2.2431,2.2408,2.2399,2.2395,2.2391,2.238,2.2375,2.2428,2.2428,2.2428,0,2.2398,2.2394,2.2412,2.2406,2.2408,2.2431,2.2421,2.2424,2.2431,2.2432,2.2443,2.2439,2.2444,2.2431,2.2423,2.2423,2.242,2.243,2.2394,2.2391,2.2387,2.2377,2.2372,2.2426,2.2427,2.2427,2.2427,0,2.2362,2.2358,2.2348,2.2357,2.2357,2.2348,2.2365,2.2363,2.2375,2.2385,2.2376,2.2384,2.2385,2.2383,2.2394,2.2372,2.2378,2.2391,2.241,2.238,2.237,2.2366,2.2424,2.2424,2.2425,2.2425,0,0,2.2301,2.2321,2.2317,2.2322,2.2334,2.2331,2.2324,2.2326,2.2325,2.2329,2.2323,2.2319,2.2333,2.2334,2.2346,2.2338,2.2312,2.2353,2.2353,2.2346,2.2289,2.2279,2.2274,2.2321,2.2321,2.232,2.2289,0,2.2266,2.2256,2.2273,2.2259,2.2256,2.2279,2.2273,2.2279,2.2289,2.2287,2.2297,2.2295,2.2312,2.2313,2.2307,2.2316,2.2301,2.2319,2.2316,2.2316,2.2314,2.2269,2.2258,2.2228,2.2285,2.2285,2.2284,0,2.2224,2.2229,2.2214,2.2229,2.2228,2.2222,2.2227,2.2225,2.2233,2.224,2.2243,2.2258,2.2251,2.227,2.2261,2.2273,2.2273,2.2278,2.2277,2.2277,2.2298,2.2269,2.2219,2.2215,2.2278,2.2279,2.2279,0,2.2183,2.2185,2.2177,2.218,2.2196,2.2191,2.2198,2.2207,2.2208,2.2211,2.2212,2.2214,2.2216,2.2217,2.2232,2.2244,2.2222,2.2241,2.2227,2.2227,2.2221,2.2222,2.2172,2.2221,2.2221,2.2221,2.2221,0,2.2142,2.2133,2.2158,2.2153,2.2144,2.2163,2.2153,2.2161,2.217,2.2167,2.2186,2.2183,2.2203,2.2201,2.2213,2.2204,2.2204,2.221,2.2213,2.2208,2.2208,2.2209,2.2211,2.222,2.222,2.222,2.222,0,2.2094,2.2111,2.2104,2.2121,2.2125,2.2117,2.2131,2.2127,2.2138,2.2134,2.2134,2.2151,2.2151,2.2166,2.2168,2.2176,2.2162,2.2169,2.216,2.2162,2.2148,2.2149,2.2097,2.2092,2.2143,2.2143,2.2142,0,2.2067,2.2061,2.2078,2.2078,2.2084,2.2083,2.2085,2.2104,2.2105,2.2115,2.211,2.2111,2.2114,2.2112,2.2124,2.2126,2.2133,2.2115,2.2133,2.2129,2.2133,2.2134,2.2134,2.211,2.211,2.2109,2.2109,0,2.2019,2.2028,2.203,2.2036,2.2037,2.2042,2.2048,2.2047,2.2068,2.2068,2.2069,2.2071,2.2074,2.2076,2.208,2.2086,2.2101,2.2103,2.21,2.2095,2.2091,2.2094,2.215,2.2104,2.2104,2.2105,2.2105,2.2105,2.1981,2.1977,2.1989,2.1991,2.1998,2.2003,2.2001,2.2013,2.2014,2.2019,2.203,2.2029,2.2039,2.2047,2.2051,2.2051,2.206,2.2055,2.2054,2.2053,2.2051,2.2091,2.2051,2.2052,2.2052,2.2052,2.2052,0,2.1934,2.1943,2.1945,2.1954,2.1956,2.1971,2.1979,2.1979,2.1979,2.1986,2.1989,2.199,2.1992,2.2005,2.2008,2.2005,2.2012,2.2006,2.2006,2.2008,2.2042,2.2044,2.2,2.2,2.2,2.2,2.2,2.2,2.191,2.1904,2.1915,2.1913,2.1922,2.1922,2.1926,2.1931,2.1938,2.1939,2.1941,2.195,2.196,2.1965,2.1967,2.1971,2.1971,2.1962,2.1968,2.2,2.2005,2.201,2.2012,2.1962,2.1962,2.1934,2.1934,2.1934]}]]